Simultaneous Nadir Overpasses (SNOs) Predictions

Prediction of SNOs between LANDSAT-8 and METOP-A Satellite Orbit:

Table of predicted SNOs for the next 14.0 days since TLE Epoch: 1/4/2019
Index Date (LANDSAT-8) Time (LANDSAT-8) Lat,Lon (LANDSAT-8) SZA (LANDSAT-8 ) Date (METOP-A) Time (METOP-A) Lat,Lon (METOP-A) SZA (METOP-A ) Distance(km) Time Diff (sec)
1 01/07/2019 08:14:17 -81.44, -78.15 73.93 01/07/2019 08:13:40 -81.43, -78.32 73.97 2.98 37
2 01/07/2019 09:03:44 81.43, 89.21 106.03 01/07/2019 09:04:20 81.43, 89.15 106.05 1.23 36
3 01/10/2019 03:48:32 -81.44, -11.78 74.35 01/10/2019 03:47:54 -81.43, -11.60 74.35 3.00 38
4 01/10/2019 04:37:58 81.44, 155.95 105.66 01/10/2019 04:38:34 81.43, 155.86 105.66 1.56 36
5 01/12/2019 23:22:47 -81.43, 54.56 74.83 01/12/2019 23:22:09 -81.43, 54.71 74.83 2.54 38
6 01/13/2019 00:12:13 81.43,-137.75 105.17 01/13/2019 00:12:49 81.43,-137.84 105.18 1.61 36
7 01/15/2019 18:57:01 -81.42, 120.85 75.37 01/15/2019 18:56:23 -81.43, 121.00 75.37 2.54 38
8 01/15/2019 19:46:26 81.44, -71.09 104.68 01/15/2019 19:47:02 81.44, -71.16 104.68 1.62 36
9 01/18/2019 14:31:15 -81.43,-172.50 75.91 01/18/2019 14:30:37 -81.43,-172.33 75.91 2.74 38




NCC Satellite Simultaneous Nadir Overpasses (SNOs) Prediction Service
